Tracking 19193 objects as of 24-Jun-2018
HD Live streaming from Space Station
objects crossing your sky now

SL-12 DEB

Track SL-12 DEB now!
10-day predictions


NORAD ID: 41702
Int'l Code: 2010-007U
Perigee: 727.2 km
Apogee: 15,609.1 km
Inclination: 65.6 °
Period: 290.8 minutes
Semi major axis: 14539 km
RCS: Unknown
Launch date: March 1, 2010
Source: Commonwealth of Independent States (former USSR) (CIS)
Launch site: TYURATAM MISSILE AND SPACE COMPLEX (TTMTR)

Note: This is SATELLITE DEBRIS
aabbcc
Your satellite tracking list
Your tracking list is empty




NASA's NSSDC Master Catalog

Two Line Element Set (TLE):
1 41702U 10007U   18174.88146419  .00004891  00000-0  38639-1 0  9996
2 41702  65.6433 142.3420 5117856  52.3424 343.9666  4.95215404 58220
Source of the keplerian elements: AFSPC